| time (UTC) | temp C | wind direction | speed KPH | gust KPH | rain 1hr cm | rain 24hr cm | rain mn cm | humidity % | barometer mb |
| 20260906021052 | 25 | 188 | 0.0 | 0.0 | 0.00 | 0.00 | 0.00 | 87 | 1014.5 |
| 20260906020651 | 25 | 188 | 0.0 | 0.0 | 0.00 | 0.00 | 0.00 | 87 | 1014.4 |
| 20260906020051 | 25 | 188 | 0.0 | 0.0 | 0.00 | 0.00 | 0.00 | 86 | 1014.3 |
| 20260906015550 | 25 | 188 | 0.0 | 0.0 | 0.00 | 0.00 | 0.00 | 86 | 1014.3 |
| 20260906015050 | 25 | 188 | 0.0 | 4.8 | 0.00 | 0.00 | 0.00 | 86 | 1014.2 |
| 20260906014552 | 25 | 188 | 0.0 | 4.8 | 0.00 | 0.00 | 0.00 | 86 | 1014.2 |
| 20260906014051 | 25 | 113 | 0.0 | 1.6 | 0.00 | 0.00 | 0.00 | 86 | 1014.0 |
| 20260906013550 | 25 | 113 | 0.0 | 0.0 | 0.00 | 0.00 | 0.00 | 85 | 1013.7 |
| 20260906013050 | 25 | 113 | 0.0 | 0.0 | 0.00 | 0.00 | 0.00 | 84 | 1013.7 |
| 20260906012549 | 26 | 113 | 0.0 | 0.0 | 0.00 | 0.00 | 0.00 | 84 | 1013.5 |
| 20260906012049 | 26 | 113 | 0.0 | 0.0 | 0.00 | 0.00 | 0.00 | 82 | 1013.5 |
| 20260906011550 | 26 | 113 | 0.0 | 0.0 | 0.00 | 0.00 | 0.00 | 83 | 1013.4 |
| 20260906011048 | 26 | 113 | 0.0 | 0.0 | 0.00 | 0.00 | 0.00 | 82 | 1013.4 |
| 20260906010649 | 26 | 113 | 0.0 | 0.0 | 0.00 | 0.00 | 0.00 | 81 | 1013.4 |
| 20260906010111 | 27 | 113 | 0.0 | 0.0 | 0.00 | 0.00 | 0.00 | 80 | 1013.2 |
| 20260906005546 | 27 | 113 | 0.0 | 0.0 | 0.00 | 0.00 | 0.00 | 79 | 1013.3 |
| 20260906005049 | 27 | 113 | 0.0 | 0.0 | 0.00 | 0.00 | 0.00 | 79 | 1013.2 |
| 20260906004559 | 27 | 113 | 0.0 | 0.0 | 0.00 | 0.00 | 0.00 | 78 | 1013.2 |
| 20260906004046 | 27 | 113 | 0.0 | 0.0 | 0.00 | 0.00 | 0.00 | 78 | 1013.2 |
| 20260906003546 | 28 | 113 | 0.0 | 0.0 | 0.00 | 0.00 | 0.00 | 78 | 1013.2 |
| 20260906003046 | 28 | 113 | 0.0 | 0.0 | 0.00 | 0.00 | 0.00 | 77 | 1013.2 |
| 20260906002546 | 28 | 113 | 0.0 | 0.0 | 0.00 | 0.00 | 0.00 | 75 | 1013.2 |
| 20260906002046 | 29 | 113 | 0.0 | 0.0 | 0.00 | 0.00 | 0.00 | 75 | 1013.3 |
| 20260906001559 | 29 | 113 | 0.0 | 0.0 | 0.00 | 0.00 | 0.00 | 73 | 1013.4 |
| 20260906001045 | 30 | 113 | 0.0 | 0.0 | 0.00 | 0.00 | 0.00 | 71 | 1013.4 |
| 20260906000646 | 30 | 113 | 0.0 | 1.6 | 0.00 | 0.00 | 0.00 | 71 | 1013.4 |
| 20260906000059 | 30 | 113 | 0.0 | 1.6 | 0.00 | 0.00 | 0.00 | 70 | 1013.5 |
| 20260905235559 | 30 | 98 | 0.0 | 1.6 | 0.00 | 0.00 | 0.00 | 68 | 1013.5 |
| 20260905235058 | 30 | 97 | 0.0 | 1.6 | 0.00 | 0.00 | 0.00 | 69 | 1013.7 |
| 20260905234557 | 30 | 92 | 0.0 | 3.2 | 0.00 | 0.00 | 0.00 | 71 | 1013.6 |
| 20260905234057 | 31 | 92 | 0.0 | 3.2 | 0.00 | 0.00 | 0.00 | 69 | 1013.6 |
| 20260905233558 | 31 | 121 | 0.0 | 1.6 | 0.00 | 0.00 | 0.00 | 67 | 1013.7 |
| 20260905233058 | 31 | 113 | 0.0 | 3.2 | 0.00 | 0.00 | 0.00 | 68 | 1013.7 |
| 20260905232557 | 31 | 125 | 0.0 | 3.2 | 0.00 | 0.00 | 0.00 | 68 | 1013.7 |
| 20260905232057 | 31 | 165 | 0.0 | 4.8 | 0.00 | 0.00 | 0.00 | 67 | 1013.6 |
| 20260905231559 | 31 | 135 | 1.6 | 4.8 | 0.00 | 0.00 | 0.00 | 69 | 1013.6 |
| 20260905231057 | 31 | 143 | 0.0 | 3.2 | 0.00 | 0.00 | 0.00 | 69 | 1013.7 |
| 20260905230656 | 31 | 109 | 0.0 | 3.2 | 0.00 | 0.00 | 0.00 | 67 | 1013.6 |
| 20260905230052 | 31 | 128 | 0.0 | 1.6 | 0.00 | 0.00 | 0.00 | 69 | 1013.4 |
| 20260905225551 | 31 | 128 | 0.0 | 1.6 | 0.00 | 0.00 | 0.00 | 67 | 1013.5 |
| 20260905225051 | 31 | 128 | 0.0 | 1.6 | 0.00 | 0.00 | 0.00 | 67 | 1013.4 |
| 20260905224552 | 31 | 128 | 0.0 | 1.6 | 0.00 | 0.00 | 0.00 | 68 | 1013.5 |
| 20260905224054 | 31 | 143 | 0.0 | 1.6 | 0.00 | 0.00 | 0.00 | 66 | 1013.5 |
| 20260905223551 | 31 | 141 | 0.0 | 3.2 | 0.00 | 0.00 | 0.00 | 66 | 1013.4 |
| 20260905223055 | 31 | 144 | 0.0 | 3.2 | 0.00 | 0.00 | 0.00 | 64 | 1013.5 |
| 20260905222551 | 31 | 132 | 0.0 | 3.2 | 0.00 | 0.00 | 0.00 | 63 | 1013.5 |
| 20260905222050 | 31 | 169 | 0.0 | 3.2 | 0.00 | 0.00 | 0.00 | 63 | 1013.5 |
| 20260905221557 | 31 | 136 | 0.0 | 8.0 | 0.00 | 0.00 | 0.00 | 63 | 1013.6 |
| 20260905221051 | 31 | 136 | 1.6 | 8.0 | 0.00 | 0.00 | 0.00 | 64 | 1013.6 |
| 20260905220650 | 32 | 145 | 0.0 | 6.4 | 0.00 | 0.00 | 0.00 | 62 | 1013.5 |
| 20260905220046 | 32 | 133 | 1.6 | 6.4 | 0.00 | 0.00 | 0.00 | 60 | 1013.6 |
| 20260905215546 | 33 | 121 | 1.6 | 6.4 | 0.00 | 0.00 | 0.00 | 55 | 1013.7 |
| 20260905215045 | 33 | 123 | 1.6 | 6.4 | 0.00 | 0.00 | 0.00 | 58 | 1013.7 |
| 20260905214548 | 33 | 116 | 1.6 | 6.4 | 0.00 | 0.00 | 0.00 | 56 | 1013.7 |
| 20260905214046 | 34 | 136 | 3.2 | 6.4 | 0.00 | 0.00 | 0.00 | 51 | 1013.6 |
| 20260905213546 | 34 | 92 | 1.6 | 8.0 | 0.00 | 0.00 | 0.00 | 53 | 1013.6 |
| 20260905213048 | 33 | 148 | 1.6 | 9.7 | 0.00 | 0.00 | 0.00 | 55 | 1013.6 |
| 20260905212547 | 33 | 109 | 1.6 | 9.7 | 0.00 | 0.00 | 0.00 | 55 | 1013.6 |
| 20260905212045 | 34 | 117 | 1.6 | 6.4 | 0.00 | 0.00 | 0.00 | 52 | 1013.6 |
| 20260905211547 | 35 | 128 | 3.2 | 8.0 | 0.00 | 0.00 | 0.00 | 49 | 1013.7 |
| 20260905211045 | 35 | 67 | 1.6 | 9.7 | 0.00 | 0.00 | 0.00 | 52 | 1013.6 |
| 20260905210644 | 36 | 96 | 3.2 | 9.7 | 0.00 | 0.00 | 0.00 | 46 | 1013.6 |
| 20260905210117 | 36 | 110 | 4.8 | 12.9 | 0.00 | 0.00 | 0.00 | 46 | 1013.6 |
| 20260905205603 | 36 | 101 | 1.6 | 9.7 | 0.00 | 0.00 | 0.00 | 47 | 1013.6 |
| 20260905205059 | 36 | 331 | 3.2 | 14.5 | 0.00 | 0.00 | 0.00 | 44 | 1013.6 |
| 20260905204601 | 36 | 38 | 3.2 | 14.5 | 0.00 | 0.00 | 0.00 | 44 | 1013.8 |
| 20260905204058 | 36 | 65 | 1.6 | 9.7 | 0.00 | 0.00 | 0.00 | 47 | 1014.0 |
| 20260905203602 | 37 | 19 | 1.6 | 9.7 | 0.00 | 0.00 | 0.00 | 43 | 1013.9 |
| 20260905203158 | 37 | 154 | 3.2 | 9.7 | 0.00 | 0.00 | 0.00 | 44 | 1014.0 |
| 20260905202557 | 36 | 360 | 3.2 | 8.0 | 0.00 | 0.00 | 0.00 | 44 | 1014.1 |
| 20260905202102 | 36 | 63 | 1.6 | 12.9 | 0.00 | 0.00 | 0.00 | 48 | 1014.0 |
| 20260905201556 | 36 | 96 | 1.6 | 12.9 | 0.00 | 0.00 | 0.00 | 46 | 1014.3 |
| 20260905201055 | 36 | 61 | 1.6 | 14.5 | 0.00 | 0.00 | 0.00 | 45 | 1014.4 |
| 20260905200655 | 37 | 84 | 4.8 | 17.7 | 0.00 | 0.00 | 0.00 | 43 | 1014.4 |
| 20260905200115 | 37 | 75 | 8.0 | 19.3 | 0.00 | 0.00 | 0.00 | 42 | 1014.4 |
| 20260905195554 | 38 | 38 | 3.2 | 9.7 | 0.00 | 0.00 | 0.00 | 44 | 1014.3 |
| 20260905195052 | 37 | 30 | 3.2 | 8.0 | 0.00 | 0.00 | 0.00 | 43 | 1014.5 |
| 20260905194552 | 37 | 319 | 3.2 | 8.0 | 0.00 | 0.00 | 0.00 | 42 | 1014.3 |
| 20260905194056 | 37 | 304 | 4.8 | 11.3 | 0.00 | 0.00 | 0.00 | 42 | 1014.4 |
| 20260905193551 | 37 | 60 | 3.2 | 16.1 | 0.00 | 0.00 | 0.00 | 44 | 1014.6 |
| 20260905193051 | 37 | 57 | 6.4 | 16.1 | 0.00 | 0.00 | 0.00 | 43 | 1014.6 |
| 20260905192550 | 37 | 13 | 1.6 | 12.9 | 0.00 | 0.00 | 0.00 | 43 | 1014.6 |
| 20260905192051 | 37 | 85 | 3.2 | 12.9 | 0.00 | 0.00 | 0.00 | 43 | 1014.6 |
| 20260905191550 | 37 | 355 | 6.4 | 12.9 | 0.00 | 0.00 | 0.00 | 42 | 1014.7 |
| 20260905191049 | 37 | 16 | 6.4 | 12.9 | 0.00 | 0.00 | 0.00 | 42 | 1014.7 |
| 20260905190648 | 37 | 348 | 4.8 | 12.9 | 0.00 | 0.00 | 0.00 | 42 | 1014.7 |
| 20260905190054 | 37 | 286 | 3.2 | 8.0 | 0.00 | 0.00 | 0.00 | 42 | 1014.8 |
| 20260905185552 | 37 | 209 | 4.8 | 8.0 | 0.00 | 0.00 | 0.00 | 41 | 1014.9 |
| 20260905185051 | 37 | 125 | 3.2 | 6.4 | 0.00 | 0.00 | 0.00 | 43 | 1015.0 |
| 20260905184600 | 35 | 12 | 1.6 | 8.0 | 0.00 | 0.00 | 0.00 | 50 | 1015.1 |
| 20260905184053 | 35 | 31 | 1.6 | 11.3 | 0.00 | 0.00 | 0.00 | 46 | 1015.2 |
| 20260905183551 | 36 | 355 | 6.4 | 11.3 | 0.00 | 0.00 | 0.00 | 44 | 1015.1 |
| 20260905183051 | 36 | 52 | 4.8 | 12.9 | 0.00 | 0.00 | 0.00 | 46 | 1015.3 |
| 20260905182550 | 36 | 343 | 6.4 | 12.9 | 0.00 | 0.00 | 0.00 | 45 | 1015.3 |
| 20260905182050 | 37 | 360 | 4.8 | 12.9 | 0.00 | 0.00 | 0.00 | 47 | 1015.2 |
| 20260905181550 | 37 | 28 | 4.8 | 12.9 | 0.00 | 0.00 | 0.00 | 44 | 1015.2 |
| 20260905181047 | 37 | 313 | 4.8 | 9.7 | 0.00 | 0.00 | 0.00 | 46 | 1015.3 |
| 20260905180647 | 36 | 321 | 3.2 | 9.7 | 0.00 | 0.00 | 0.00 | 45 | 1015.4 |
| 20260905180051 | 37 | 67 | 3.2 | 9.7 | 0.00 | 0.00 | 0.00 | 45 | 1015.4 |
| 20260905175552 | 36 | 25 | 1.6 | 4.8 | 0.00 | 0.00 | 0.00 | 45 | 1015.5 |
| 20260905175051 | 36 | 241 | 1.6 | 8.0 | 0.00 | 0.00 | 0.00 | 43 | 1015.6 |
| 20260905174550 | 36 | 346 | 3.2 | 12.9 | 0.00 | 0.00 | 0.00 | 44 | 1015.7 |
| 20260905174049 | 36 | 336 | 4.8 | 12.9 | 0.00 | 0.00 | 0.00 | 43 | 1015.8 |
| 20260905173548 | 36 | 283 | 3.2 | 8.0 | 0.00 | 0.00 | 0.00 | 46 | 1015.8 |
| 20260905173052 | 36 | 302 | 1.6 | 6.4 | 0.00 | 0.00 | 0.00 | 46 | 1016.0 |
| 20260905172547 | 36 | 186 | 1.6 | 6.4 | 0.00 | 0.00 | 0.00 | 45 | 1016.1 |
| 20260905172046 | 36 | 76 | 1.6 | 8.0 | 0.00 | 0.00 | 0.00 | 45 | 1016.1 |
| 20260905171545 | 36 | 92 | 1.6 | 12.9 | 0.00 | 0.00 | 0.00 | 48 | 1016.2 |
| 20260905171043 | 36 | 49 | 4.8 | 12.9 | 0.00 | 0.00 | 0.00 | 48 | 1016.3 |
| 20260905170509 | 36 | 53 | 3.2 | 11.3 | 0.00 | 0.00 | 0.00 | 48 | 1016.4 |
| 20260905170007 | 36 | 112 | 3.2 | 11.3 | 0.00 | 0.00 | 0.00 | 53 | 1016.4 |
| 20260905165506 | 36 | 315 | 3.2 | 12.9 | 0.00 | 0.00 | 0.00 | 46 | 1016.5 |
| 20260905165008 | 35 | 355 | 4.8 | 12.9 | 0.00 | 0.00 | 0.00 | 47 | 1016.5 |
| 20260905164505 | 36 | 5 | 3.2 | 9.7 | 0.00 | 0.00 | 0.00 | 48 | 1016.6 |
| 20260905164004 | 35 | 306 | 3.2 | 6.4 | 0.00 | 0.00 | 0.00 | 48 | 1016.5 |
| 20260905163505 | 35 | 10 | 1.6 | 8.0 | 0.00 | 0.00 | 0.00 | 49 | 1016.5 |
| 20260905163002 | 35 | 324 | 4.8 | 8.0 | 0.00 | 0.00 | 0.00 | 49 | 1016.6 |
| 20260905162502 | 34 | 11 | 3.2 | 8.0 | 0.00 | 0.00 | 0.00 | 56 | 1016.5 |
| 20260905162100 | 33 | 9 | 0.0 | 4.8 | 0.00 | 0.00 | 0.00 | 60 | 1016.5 |
| 20260905161600 | 33 | 14 | 1.6 | 8.0 | 0.00 | 0.00 | 0.00 | 58 | 1016.6 |
| 20260905161100 | 34 | 34 | 3.2 | 8.0 | 0.00 | 0.00 | 0.00 | 58 | 1016.6 |
| 20260905160505 | 33 | 281 | 1.6 | 6.4 | 0.00 | 0.00 | 0.00 | 55 | 1016.6 |
| 20260905160005 | 33 | 323 | 1.6 | 8.0 | 0.00 | 0.00 | 0.00 | 60 | 1016.5 |
| 20260905155507 | 34 | 292 | 1.6 | 8.0 | 0.00 | 0.00 | 0.00 | 52 | 1016.7 |
| 20260905155003 | 33 | 261 | 3.2 | 9.7 | 0.00 | 0.00 | 0.00 | 53 | 1016.7 |
| 20260905154504 | 34 | 315 | 3.2 | 12.9 | 0.00 | 0.00 | 0.00 | 56 | 1016.7 |
| 20260905154005 | 34 | 312 | 3.2 | 12.9 | 0.00 | 0.00 | 0.00 | 51 | 1016.7 |
| 20260905153503 | 34 | 302 | 1.6 | 9.7 | 0.00 | 0.00 | 0.00 | 54 | 1016.5 |
| 20260905153001 | 33 | 316 | 3.2 | 9.7 | 0.00 | 0.00 | 0.00 | 53 | 1016.5 |
| 20260905152603 | 33 | 5 | 1.6 | 6.4 | 0.00 | 0.00 | 0.00 | 59 | 1016.5 |
| 20260905152058 | 33 | 348 | 3.2 | 8.0 | 0.00 | 0.00 | 0.00 | 60 | 1016.6 |
| 20260905151613 | 33 | 20 | 3.2 | 8.0 | 0.00 | 0.00 | 0.00 | 60 | 1016.5 |
| 20260905151054 | 32 | 340 | 3.2 | 8.0 | 0.00 | 0.00 | 0.00 | 61 | 1016.6 |
| 20260905150511 | 33 | 5 | 1.6 | 6.4 | 0.00 | 0.00 | 0.00 | 59 | 1016.4 |
| 20260905150006 | 32 | 269 | 1.6 | 9.7 | 0.00 | 0.00 | 0.00 | 59 | 1016.4 |
| 20260905145503 | 32 | 323 | 4.8 | 12.9 | 0.00 | 0.00 | 0.00 | 61 | 1016.5 |
| 20260905145003 | 32 | 328 | 4.8 | 12.9 | 0.00 | 0.00 | 0.00 | 62 | 1016.5 |
| 20260905144502 | 32 | 294 | 1.6 | 12.9 | 0.00 | 0.00 | 0.00 | 62 | 1016.5 |
| 20260905144103 | 32 | 287 | 8.0 | 12.9 | 0.00 | 0.00 | 0.00 | 60 | 1016.5 |
| 20260905143559 | 32 | 320 | 3.2 | 12.9 | 0.00 | 0.00 | 0.00 | 63 | 1016.5 |
| 20260905143058 | 31 | 343 | 3.2 | 12.9 | 0.00 | 0.00 | 0.00 | 64 | 1016.5 |
| 20260905142558 | 30 | 299 | 4.8 | 8.0 | 0.00 | 0.00 | 0.00 | 69 | 1016.5 |
| 20260905142054 | 30 | 340 | 1.6 | 9.7 | 0.00 | 0.00 | 0.00 | 73 | 1016.6 |
| 20260905141553 | 29 | 297 | 1.6 | 9.7 | 0.00 | 0.00 | 0.00 | 73 | 1016.6 |
| 20260905141051 | 28 | 298 | 3.2 | 8.0 | 0.00 | 0.00 | 0.00 | 78 | 1016.6 |
| 20260905140650 | 27 | 317 | 0.0 | 4.8 | 0.00 | 0.00 | 0.00 | 80 | 1016.6 |
| 20260905140058 | 27 | 321 | 0.0 | 3.2 | 0.00 | 0.00 | 0.00 | 84 | 1016.7 |
| 20260905135557 | 26 | 146 | 0.0 | 1.6 | 0.00 | 0.00 | 0.00 | 84 | 1016.8 |
| 20260905135057 | 26 | 146 | 0.0 | 1.6 | 0.00 | 0.00 | 0.00 | 85 | 1016.9 |
| 20260905134554 | 25 | 146 | 0.0 | 0.0 | 0.00 | 0.00 | 0.00 | 88 | 1016.8 |
| 20260905134057 | 24 | 146 | 0.0 | 0.0 | 0.00 | 0.00 | 0.00 | 90 | 1016.9 |
| 20260905133552 | 24 | 146 | 0.0 | 0.0 | 0.00 | 0.00 | 0.00 | 92 | 1016.8 |
| 20260905133049 | 23 | 146 | 0.0 | 0.0 | 0.00 | 0.00 | 0.00 | 93 | 1016.8 |
| 20260905132548 | 23 | 146 | 0.0 | 0.0 | 0.00 | 0.00 | 0.00 | 94 | 1016.7 |
| 20260905132048 | 23 | 146 | 0.0 | 0.0 | 0.00 | 0.00 | 0.00 | 94 | 1016.6 |
| 20260905131556 | 22 | 146 | 0.0 | 0.0 | 0.00 | 0.00 | 0.00 | 95 | 1016.6 |
| 20260905131046 | 22 | 146 | 0.0 | 0.0 | 0.00 | 0.00 | 0.00 | 95 | 1016.6 |
| 20260905130647 | 22 | 146 | 0.0 | 0.0 | 0.00 | 0.00 | 0.00 | 96 | 1016.5 |
| 20260905130050 | 22 | 146 | 0.0 | 0.0 | 0.00 | 0.00 | 0.00 | 96 | 1016.6 |
| 20260905125549 | 21 | 146 | 0.0 | 0.0 | 0.00 | 0.00 | 0.00 | 96 | 1016.5 |
| 20260905125049 | 21 | 146 | 0.0 | 0.0 | 0.00 | 0.00 | 0.00 | 97 | 1016.5 |
| 20260905124548 | 21 | 146 | 0.0 | 0.0 | 0.00 | 0.00 | 0.00 | 96 | 1016.5 |
| 20260905124047 | 21 | 146 | 0.0 | 0.0 | 0.00 | 0.00 | 0.00 | 97 | 1016.4 |
| 20260905123546 | 21 | 146 | 0.0 | 0.0 | 0.00 | 0.00 | 0.00 | 97 | 1016.4 |
| 20260905123104 | 21 | 146 | 0.0 | 0.0 | 0.00 | 0.00 | 0.00 | 97 | 1016.3 |
| 20260905122548 | 21 | 146 | 0.0 | 0.0 | 0.00 | 0.00 | 0.00 | 97 | 1016.3 |
| 20260905122045 | 20 | 146 | 0.0 | 0.0 | 0.00 | 0.00 | 0.00 | 97 | 1016.3 |
| 20260905121544 | 20 | 146 | 0.0 | 0.0 | 0.00 | 0.00 | 0.00 | 97 | 1016.2 |
| 20260905121044 | 20 | 146 | 0.0 | 0.0 | 0.00 | 0.00 | 0.00 | 96 | 1016.3 |
| 20260905120644 | 20 | 146 | 0.0 | 0.0 | 0.00 | 0.00 | 0.00 | 96 | 1016.2 |
| 20260905120042 | 20 | 157 | 0.0 | 0.0 | 0.00 | 0.00 | 0.00 | 96 | 1016.1 |
| 20260905115545 | 20 | 157 | 0.0 | 0.0 | 0.00 | 0.00 | 0.00 | 96 | 1016.0 |
| 20260905115046 | 20 | 157 | 0.0 | 0.0 | 0.00 | 0.00 | 0.00 | 96 | 1015.8 |
| 20260905114544 | 20 | 157 | 0.0 | 0.0 | 0.00 | 0.00 | 0.00 | 96 | 1015.8 |
| 20260905114041 | 20 | 157 | 0.0 | 0.0 | 0.00 | 0.00 | 0.00 | 96 | 1015.8 |
| 20260905113542 | 20 | 159 | 0.0 | 0.0 | 0.00 | 0.00 | 0.00 | 96 | 1015.8 |
| 20260905113040 | 20 | 159 | 0.0 | 0.0 | 0.00 | 0.00 | 0.00 | 96 | 1015.8 |
| 20260905112540 | 20 | 159 | 0.0 | 0.0 | 0.00 | 0.00 | 0.00 | 96 | 1015.7 |
| 20260905112039 | 20 | 159 | 0.0 | 1.6 | 0.00 | 0.00 | 0.00 | 96 | 1015.6 |
| 20260905111539 | 20 | 159 | 0.0 | 1.6 | 0.00 | 0.00 | 0.00 | 96 | 1015.7 |
| 20260905111040 | 20 | 159 | 0.0 | 1.6 | 0.00 | 0.00 | 0.00 | 96 | 1015.6 |
| 20260905110638 | 20 | 159 | 0.0 | 1.6 | 0.00 | 0.00 | 0.00 | 96 | 1015.7 |
| 20260905110053 | 20 | 159 | 0.0 | 1.6 | 0.00 | 0.00 | 0.00 | 96 | 1015.7 |
| 20260905105553 | 21 | 159 | 0.0 | 1.6 | 0.00 | 0.00 | 0.00 | 96 | 1015.6 |
| 20260905105053 | 21 | 159 | 0.0 | 0.0 | 0.00 | 0.00 | 0.00 | 96 | 1015.7 |
| 20260905104553 | 21 | 159 | 0.0 | 0.0 | 0.00 | 0.00 | 0.00 | 96 | 1015.8 |
| 20260905104052 | 21 | 159 | 0.0 | 0.0 | 0.00 | 0.00 | 0.00 | 96 | 1015.9 |
| 20260905103552 | 21 | 159 | 0.0 | 0.0 | 0.00 | 0.00 | 0.00 | 96 | 1015.8 |
| 20260905103058 | 21 | 159 | 0.0 | 0.0 | 0.00 | 0.00 | 0.00 | 96 | 1015.8 |
| 20260905102554 | 21 | 159 | 0.0 | 0.0 | 0.00 | 0.00 | 0.00 | 96 | 1015.8 |
| 20260905102051 | 21 | 159 | 0.0 | 0.0 | 0.00 | 0.00 | 0.00 | 96 | 1015.9 |
| 20260905101550 | 21 | 159 | 0.0 | 0.0 | 0.00 | 0.00 | 0.00 | 95 | 1016.0 |
| 20260905101051 | 21 | 159 | 0.0 | 0.0 | 0.00 | 0.00 | 0.00 | 95 | 1015.9 |
| 20260905100652 | 21 | 159 | 0.0 | 0.0 | 0.00 | 0.00 | 0.00 | 95 | 1015.9 |
| 20260905100056 | 21 | 159 | 0.0 | 0.0 | 0.00 | 0.00 | 0.00 | 95 | 1015.8 |
| 20260905095548 | 21 | 159 | 0.0 | 0.0 | 0.00 | 0.00 | 0.00 | 95 | 1015.9 |
| 20260905095050 | 21 | 159 | 0.0 | 0.0 | 0.00 | 0.00 | 0.00 | 95 | 1015.9 |
| 20260905094548 | 21 | 159 | 0.0 | 0.0 | 0.00 | 0.00 | 0.00 | 95 | 1016.0 |
| 20260905094047 | 21 | 159 | 0.0 | 0.0 | 0.00 | 0.00 | 0.00 | 95 | 1015.8 |
| 20260905093547 | 21 | 159 | 0.0 | 0.0 | 0.00 | 0.00 | 0.00 | 95 | 1015.8 |
| 20260905093047 | 21 | 159 | 0.0 | 0.0 | 0.00 | 0.00 | 0.00 | 94 | 1015.9 |
| 20260905092546 | 21 | 159 | 0.0 | 0.0 | 0.00 | 0.00 | 0.00 | 94 | 1015.8 |
| 20260905092046 | 21 | 159 | 0.0 | 0.0 | 0.00 | 0.00 | 0.00 | 94 | 1015.8 |
| 20260905091552 | 21 | 159 | 0.0 | 0.0 | 0.00 | 0.00 | 0.00 | 94 | 1015.8 |
| 20260905091046 | 21 | 159 | 0.0 | 0.0 | 0.00 | 0.00 | 0.00 | 94 | 1015.8 |
| 20260905090646 | 21 | 159 | 0.0 | 0.0 | 0.00 | 0.00 | 0.00 | 93 | 1015.8 |
| 20260905090043 | 22 | 159 | 0.0 | 0.0 | 0.00 | 0.00 | 0.00 | 93 | 1015.7 |
| 20260905085543 | 22 | 159 | 0.0 | 0.0 | 0.00 | 0.00 | 0.00 | 93 | 1015.6 |
| 20260905085042 | 22 | 159 | 0.0 | 0.0 | 0.00 | 0.00 | 0.00 | 93 | 1015.5 |
| 20260905084548 | 22 | 159 | 0.0 | 0.0 | 0.00 | 0.00 | 0.00 | 93 | 1015.5 |
| 20260905084043 | 22 | 159 | 0.0 | 1.6 | 0.00 | 0.00 | 0.00 | 93 | 1015.6 |
| 20260905083544 | 22 | 159 | 0.0 | 1.6 | 0.00 | 0.00 | 0.00 | 93 | 1015.5 |
| 20260905083041 | 22 | 159 | 0.0 | 0.0 | 0.00 | 0.00 | 0.00 | 93 | 1015.5 |
| 20260905082541 | 22 | 159 | 0.0 | 0.0 | 0.00 | 0.00 | 0.00 | 92 | 1015.5 |
| 20260905082041 | 22 | 159 | 0.0 | 1.6 | 0.00 | 0.00 | 0.00 | 92 | 1015.5 |
| 20260905081541 | 22 | 159 | 0.0 | 1.6 | 0.00 | 0.00 | 0.00 | 92 | 1015.6 |
| 20260905081039 | 22 | 159 | 0.0 | 1.6 | 0.00 | 0.00 | 0.00 | 92 | 1015.6 |
| 20260905080502 | 22 | 159 | 0.0 | 1.6 | 0.00 | 0.00 | 0.00 | 92 | 1015.6 |
| 20260905080139 | 22 | 159 | 0.0 | 0.0 | 0.00 | 0.00 | 0.00 | 92 | 1015.7 |
| 20260905075600 | 22 | 159 | 0.0 | 1.6 | 0.00 | 0.00 | 0.00 | 92 | 1015.6 |
| 20260905075059 | 22 | 159 | 0.0 | 1.6 | 0.00 | 0.00 | 0.00 | 92 | 1015.5 |
| 20260905074603 | 22 | 159 | 0.0 | 1.6 | 0.00 | 0.00 | 0.00 | 92 | 1015.5 |
| 20260905074057 | 22 | 159 | 0.0 | 1.6 | 0.00 | 0.00 | 0.00 | 92 | 1015.7 |
| 20260905073557 | 22 | 159 | 0.0 | 1.6 | 0.00 | 0.00 | 0.00 | 91 | 1015.5 |
| 20260905073057 | 22 | 159 | 0.0 | 1.6 | 0.00 | 0.00 | 0.00 | 91 | 1015.6 |
| 20260905072559 | 22 | 159 | 0.0 | 1.6 | 0.00 | 0.00 | 0.00 | 91 | 1015.6 |
| 20260905072056 | 23 | 159 | 0.0 | 1.6 | 0.00 | 0.00 | 0.00 | 91 | 1015.7 |
| 20260905071602 | 23 | 159 | 0.0 | 1.6 | 0.00 | 0.00 | 0.00 | 90 | 1015.8 |
| 20260905071059 | 23 | 159 | 0.0 | 3.2 | 0.00 | 0.00 | 0.00 | 90 | 1015.6 |
| 20260905070656 | 23 | 156 | 0.0 | 3.2 | 0.00 | 0.00 | 0.00 | 90 | 1015.7 |
| 20260905070057 | 23 | 130 | 0.0 | 3.2 | 0.00 | 0.00 | 0.00 | 90 | 1015.7 |
| 20260905065556 | 23 | 158 | 0.0 | 3.2 | 0.00 | 0.00 | 0.00 | 90 | 1015.7 |
| 20260905065055 | 23 | 190 | 0.0 | 3.2 | 0.00 | 0.00 | 0.00 | 90 | 1015.9 |
| 20260905064600 | 23 | 131 | 0.0 | 1.6 | 0.00 | 0.00 | 0.00 | 90 | 1015.7 |
| 20260905064055 | 23 | 161 | 0.0 | 0.0 | 0.00 | 0.00 | 0.00 | 91 | 1015.8 |
| 20260905063555 | 23 | 161 | 0.0 | 0.0 | 0.00 | 0.00 | 0.00 | 90 | 1015.8 |
| 20260905063054 | 23 | 161 | 0.0 | 1.6 | 0.00 | 0.00 | 0.00 | 90 | 1015.9 |
| 20260905062554 | 23 | 161 | 0.0 | 1.6 | 0.00 | 0.00 | 0.00 | 90 | 1015.9 |
| 20260905062054 | 23 | 163 | 0.0 | 3.2 | 0.00 | 0.00 | 0.00 | 89 | 1015.9 |
| 20260905061558 | 23 | 134 | 0.0 | 3.2 | 0.00 | 0.00 | 0.00 | 90 | 1016.0 |
| 20260905061055 | 23 | 145 | 0.0 | 4.8 | 0.00 | 0.00 | 0.00 | 90 | 1016.0 |
| 20260905060655 | 23 | 128 | 1.6 | 4.8 | 0.00 | 0.00 | 0.00 | 90 | 1015.9 |
| 20260905060100 | 23 | 114 | 0.0 | 8.0 | 0.00 | 0.00 | 0.00 | 89 | 1015.8 |
| 20260905055558 | 23 | 191 | 0.0 | 6.4 | 0.00 | 0.00 | 0.00 | 89 | 1015.9 |
| 20260905055055 | 23 | 138 | 1.6 | 8.0 | 0.00 | 0.00 | 0.00 | 89 | 1015.9 |
| 20260905054557 | 23 | 165 | 1.6 | 11.3 | 0.00 | 0.00 | 0.00 | 90 | 1015.8 |
| 20260905054053 | 23 | 169 | 3.2 | 11.3 | 0.00 | 0.00 | 0.00 | 90 | 1015.8 |
| 20260905053555 | 23 | 148 | 1.6 | 8.0 | 0.00 | 0.00 | 0.00 | 90 | 1015.9 |
| 20260905053107 | 23 | 194 | 1.6 | 4.8 | 0.00 | 0.00 | 0.00 | 90 | 1015.8 |
| 20260905052552 | 23 | 161 | 0.0 | 4.8 | 0.00 | 0.00 | 0.00 | 90 | 1015.8 |
| 20260905052050 | 23 | 182 | 0.0 | 4.8 | 0.00 | 0.00 | 0.00 | 91 | 1015.9 |
| 20260905051555 | 23 | 131 | 0.0 | 4.8 | 0.00 | 0.00 | 0.00 | 91 | 1015.9 |
| 20260905051049 | 23 | 151 | 0.0 | 4.8 | 0.00 | 0.00 | 0.00 | 91 | 1015.7 |
| 20260905050650 | 23 | 138 | 0.0 | 6.4 | 0.00 | 0.00 | 0.00 | 91 | 1015.8 |
| 20260905050046 | 23 | 186 | 0.0 | 8.0 | 0.00 | 0.00 | 0.00 | 91 | 1015.8 |
| 20260905045546 | 23 | 148 | 0.0 | 6.4 | 0.00 | 0.00 | 0.00 | 91 | 1015.7 |
| 20260905045047 | 23 | 206 | 0.0 | 3.2 | 0.00 | 0.00 | 0.00 | 91 | 1015.7 |
| 20260905044548 | 23 | 154 | 0.0 | 1.6 | 0.00 | 0.00 | 0.00 | 91 | 1015.7 |
| 20260905044046 | 23 | 155 | 0.0 | 4.8 | 0.00 | 0.00 | 0.00 | 92 | 1015.8 |
| 20260905043547 | 23 | 175 | 0.0 | 4.8 | 0.00 | 0.00 | 0.00 | 92 | 1015.7 |
| 20260905043104 | 23 | 138 | 0.0 | 3.2 | 0.00 | 0.00 | 0.00 | 92 | 1015.9 |
| 20260905042546 | 23 | 157 | 0.0 | 1.6 | 0.00 | 0.00 | 0.00 | 92 | 1015.7 |
| 20260905042046 | 23 | 143 | 0.0 | 1.6 | 0.00 | 0.00 | 0.00 | 92 | 1015.7 |
| 20260905041546 | 23 | 140 | 0.0 | 1.6 | 0.00 | 0.00 | 0.00 | 92 | 1015.8 |
| 20260905041050 | 23 | 148 | 0.0 | 1.6 | 0.00 | 0.00 | 0.00 | 92 | 1015.8 |
| 20260905040646 | 23 | 135 | 0.0 | 4.8 | 0.00 | 0.00 | 0.00 | 92 | 1015.8 |
| 20260905040048 | 23 | 156 | 1.6 | 4.8 | 0.00 | 0.00 | 0.00 | 92 | 1015.8 |
| 20260905035540 | 23 | 175 | 0.0 | 4.8 | 0.00 | 0.00 | 0.00 | 92 | 1015.8 |
| 20260905035040 | 23 | 176 | 0.0 | 3.2 | 0.00 | 0.00 | 0.00 | 91 | 1016.1 |
| 20260905034542 | 23 | 149 | 0.0 | 3.2 | 0.00 | 0.00 | 0.00 | 91 | 1016.1 |
| 20260905034039 | 23 | 139 | 0.0 | 3.2 | 0.00 | 0.00 | 0.00 | 91 | 1015.9 |
| 20260905033539 | 23 | 198 | 0.0 | 3.2 | 0.00 | 0.00 | 0.00 | 91 | 1016.0 |
| 20260905033039 | 24 | 178 | 0.0 | 3.2 | 0.00 | 0.00 | 0.00 | 90 | 1016.0 |
| 20260905032543 | 24 | 182 | 0.0 | 1.6 | 0.00 | 0.00 | 0.00 | 90 | 1016.0 |
| 20260905032039 | 24 | 182 | 0.0 | 1.6 | 0.00 | 0.00 | 0.00 | 90 | 1016.0 |
| 20260905031542 | 24 | 182 | 0.0 | 0.0 | 0.00 | 0.00 | 0.00 | 90 | 1015.9 |
| 20260905031043 | 24 | 182 | 0.0 | 0.0 | 0.00 | 0.00 | 0.00 | 90 | 1016.1 |
| 20260905030640 | 24 | 182 | 0.0 | 1.6 | 0.00 | 0.00 | 0.00 | 90 | 1016.0 |
| 20260905030100 | 24 | 182 | 0.0 | 1.6 | 0.00 | 0.00 | 0.00 | 90 | 1016.1 |
| 20260905025557 | 24 | 182 | 0.0 | 1.6 | 0.00 | 0.00 | 0.00 | 90 | 1016.1 |
| 20260905025056 | 25 | 166 | 0.0 | 1.6 | 0.00 | 0.00 | 0.00 | 90 | 1016.0 |
| 20260905024556 | 25 | 166 | 0.0 | 1.6 | 0.00 | 0.00 | 0.00 | 89 | 1016.1 |
| 20260905024056 | 25 | 164 | 0.0 | 1.6 | 0.00 | 0.00 | 0.00 | 89 | 1016.0 |
| 20260905023556 | 25 | 164 | 0.0 | 1.6 | 0.00 | 0.00 | 0.00 | 90 | 1015.9 |
| 20260905023056 | 25 | 164 | 0.0 | 3.2 | 0.00 | 0.00 | 0.00 | 90 | 1016.0 |
| 20260905022555 | 25 | 164 | 0.0 | 4.8 | 0.00 | 0.00 | 0.00 | 89 | 1015.9 |
| 20260905022057 | 25 | 194 | 0.0 | 4.8 | 0.00 | 0.00 | 0.00 | 89 | 1015.8 |
| 20260905021555 | 25 | 155 | 0.0 | 1.6 | 0.00 | 0.00 | 0.00 | 88 | 1015.6 |